Weather observations for the past three days for
Anchorage, Ted Stevens Anchorage International Airport
Metric (Imperial)
Date Time (akdt) Wind (kph) Vis. (km) Weather Sky Cond. Temperature (ºC) Relative Humidity Wind Chill (°C) Heat Index (°C) Pressure Precipitation (cm)
Air Dwpt 6 hour altimeter (cm) sea level (mb) 1 hr 3 hr 6 hr
Max. Min.
21 07:53 NE 6 16.09 A Few Clouds FEW085 14.4 8.3 67% 75.9 1011.9
21 06:53 Calm 16.09 A Few Clouds FEW085 13.3 6.7 65% 75.9 1012.0
21 05:53 Calm 16.09 Partly Cloudy SCT085 8.9 6.7 86% 75.92 1012.1
21 04:53 Calm 16.09 A Few Clouds FEW085 8.3 6.1 86% 75.92 1012.3
21 03:53 E 6 16.09 Fair CLR 8.9 6.7 16.1 8.9 86% 75.95 1012.4
21 02:53 SE 9 16.09 Fair CLR 10.6 6.7 77% 75.95 1012.7
21 01:53 S 11 16.09 Mostly Cloudy BKN080 13.3 5.6 60% 75.95 1012.6
21 00:53 S 15 16.09 Mostly Cloudy FEW085 BKN110 14.4 6.1 58% 75.97 1012.9
20 23:53 SE 13 16.09 Mostly Cloudy SCT070 BKN110 14.4 6.1 58% 76 1013.2
20 22:53 S 17 16.09 Mostly Cloudy SCT070 BKN120 15 6.1 56% 75.97 1012.7
20 21:53 S 15 16.09 Mostly Cloudy FEW055 BKN120 BKN250 16.1 6.7 18.3 15.6 54% 75.97 1012.8
20 20:53 S 15 16.09 Mostly Cloudy FEW055 SCT120 BKN250 17.2 6.1 48% 75.97 1012.8
20 19:53 SE 19 16.09 Overcast FEW055 SCT120 OVC250 17.2 6.7 50% 76 1013.1
20 18:53 SE 20 G 33 16.09 Overcast FEW055 SCT110 OVC250 17.8 6.7 48% 76 1013.4
20 17:53 SE 17 G 30 16.09 Overcast FEW055 SCT100 OVC230 17.2 6.7 50% 76.02 1013.7
20 16:53 SE 20 G 33 16.09 Overcast FEW045 BKN090 OVC180 17.2 6.1 48% 76.07 1014.1
20 15:53 Calm 16.09 Overcast FEW045 BKN090 OVC180 16.1 8.9 16.1 10.6 63% 76.1 1014.6
20 14:53 N 9 16.09 Overcast FEW045 BKN085 OVC160 15 8.3 64% 76.12 1015.0
20 13:53 NW 9 16.09 Overcast FEW040 BKN100 OVC160 14.4 8.3 67% 76.15 1015.4
20 12:53 Vrbl 9 16.09 Overcast FEW040 BKN100 OVC160 13.3 7.8 70% 76.17 1015.5
20 11:53 NW 9 16.09 Overcast FEW030 BKN110 OVC160 12.8 7.8 72% 76.17 1015.6
20 10:53 Calm 16.09 Mostly Cloudy FEW020 BKN100 BKN160 12.2 7.8 75% 76.2 1016.1
20 09:53 Vrbl 7 16.09 Overcast FEW020 BKN070 OVC160 10.6 7.8 10.6 9.4 83% 76.23 1016.4
20 08:53 Vrbl 7 16.09 Overcast FEW021 BKN070 OVC150 10.6 7.2 80% 76.25 1016.5
20 07:53 W 7 16.09 Overcast SCT070 OVC150 10 7.2 83% 9 76.25 1016.6
20 06:53 Calm 16.09 Mostly Cloudy SCT070 BKN150 10 7.2 83% 76.25 1016.7
20 05:53 SW 9 16.09 Mostly Cloudy SCT070 BKN200 10 6.7 80% 9 76.25 1016.5
20 04:53 SW 11 16.09 Mostly Cloudy BKN070 BKN200 10 6.7 80% 9 76.25 1016.5
20 03:53 SW 13 16.09 Mostly Cloudy BKN070 10.6 6.7 15.6 10 77% 76.23 1016.4
20 02:53 SW 13 16.09 Mostly Cloudy FEW120 BKN200 10.6 6.7 77% 76.23 1016.2
20 01:53 SW 13 16.09 Partly Cloudy FEW120 SCT200 11.1 6.7 75% 76.2 1015.9
20 00:53 SW 17 16.09 Partly Cloudy FEW075 SCT120 SCT200 11.7 6.7 72% 76.2 1015.9
19 23:53 SW 13 16.09 Partly Cloudy FEW075 SCT090 SCT200 11.7 7.8 77% 76.2 1015.9
19 22:53 W 15 16.09 Partly Cloudy SCT160 SCT220 12.8 7.8 72% 76.15 1015.3
19 21:53 S 19 G 33 16.09 Partly Cloudy FEW060 SCT160 SCT220 15.6 8.9 17.8 15 65% 76.12 1015.0
19 20:53 SW 15 16.09 Partly Cloudy FEW060 SCT160 SCT220 16.1 6.7 54% 76.12 1014.9
19 19:53 SW 15 16.09 Partly Cloudy FEW060 SCT160 SCT220 16.7 6.7 52% 76.12 1015.0
19 18:53 SW 11 16.09 Partly Cloudy FEW060 SCT160 17.2 7.8 54% 76.15 1015.2
19 17:53 W 7 16.09 Partly Cloudy FEW060 SCT160 17.2 9.4 60% 76.17 1015.7
19 16:53 W 11 16.09 Partly Cloudy FEW060 SCT160 16.7 9.4 62% 76.2 1016.0
19 15:53 W 17 G 37 16.09 Partly Cloudy FEW060 SCT160 15.6 9.4 15.6 10 67% 76.25 1016.5
19 14:53 W 13 16.09 Partly Cloudy SCT160 14.4 9.4 72% 76.28 1016.9
19 13:53 NW 11 16.09 Partly Cloudy FEW050 SCT160 13.9 8.3 69% 76.3 1017.3
19 12:53 NW 9 16.09 Partly Cloudy SCT140 13.9 8.9 72% 76.33 1017.6
19 11:53 Calm 16.09 Partly Cloudy SCT150 13.3 8.3 72% 76.33 1017.8
19 10:53 NW 6 16.09 Mostly Cloudy BKN013 BKN150 11.7 7.8 77% 76.35 1017.9
19 09:53 W 6 16.09 Overcast OVC011 10 7.2 10.6 7.2 83% 76.38 1018.5
19 08:53 NW 7 16.09 Overcast OVC011 10 6.7 80% 9 76.4 1018.6
19 07:53 Vrbl 6 16.09 Mostly Cloudy SCT010 BKN080 10 6.7 80% 76.4 1018.8
19 06:53 Calm 16.09 Mostly Cloudy SCT009 SCT070 BKN250 8.9 6.7 86% 76.4 1018.6
19 05:53 Calm 16.09 A Few Clouds FEW011 FEW200 7.8 5.6 86% 76.4 1018.7
19 04:53 W 7 16.09 A Few Clouds FEW040 FEW250 7.2 5 86% 6 76.4 1018.6
19 03:53 SW 9 16.09 A Few Clouds FEW070 7.8 5.6 12.2 7.2 86% 6 76.38 1018.5
19 01:53 SW 6 16.09 A Few Clouds FEW050 FEW200 8.3 5 80% 76.4 1018.5
19 00:53 E 6 16.09 A Few Clouds FEW050 FEW200 8.9 5.6 80% 76.4 1018.6
18 23:53 SW 13 16.09 Partly Cloudy FEW050 SCT200 10 5.6 74% 8 76.38 1018.2
18 22:53 W 11 16.09 Partly Cloudy FEW045 SCT200 10.6 6.1 74% 76.35 1018.0
18 21:53 SW 13 16.09 Partly Cloudy SCT047 SCT200 12.2 6.7 15.6 12.2 69% 76.33 1017.7
18 20:53 SW 15 16.09 Partly Cloudy FEW050 SCT200 13.9 6.7 62% 76.3 1017.2
18 19:53 W 17 16.09 Mostly Cloudy FEW050 BKN200 13.9 6.1 60% 76.3 1017.2
18 18:53 SW 22 16.09 Mostly Cloudy FEW050 BKN200 13.3 5.6 60% 76.28 1016.9
18 17:53 SW 22 G 31 16.09 Mostly Cloudy FEW055 BKN200 14.4 5.6 56% 76.28 1016.9
18 16:53 W 13 G 35 16.09 Partly Cloudy SCT200 14.4 6.7 60% 76.28 1016.8
18 15:53 W 11 16.09 Partly Cloudy FEW060 SCT200 14.4 7.8 14.4 11.1 65% 76.3 1017.2
18 14:53 NW 17 16.09 Partly Cloudy FEW060 SCT200 13.3 8.3 72% 76.3 1017.3
18 13:53 NW 19 16.09 Partly Cloudy FEW019 SCT200 13.3 8.3 72% 76.33 1017.6
18 12:53 W 20 G 39 16.09 Partly Cloudy FEW019 SCT200 13.3 8.9 75% 76.33 1017.5
18 11:53 Vrbl 6 16.09 Mostly Cloudy FEW019 BKN024 12.8 8.3 74% 76.33 1017.6
18 10:53 NW 11 16.09 Overcast OVC019 12.2 7.8 75% 76.33 1017.7
18 09:53 NW 13 16.09 Overcast OVC019 11.1 7.2 11.7 7.8 77% 76.33 1017.6
Date Time (akdt) Wind (kph) Vis. (km) Weather Sky Cond. Air Dwpt Max. Min. Relative Humidity Wind Chill (°C) Heat Index (°C) altimeter (cm) sea level (mb) 1 hr 3 hr 6 hr
6 hour
Temperature (ºC) Pressure Precipitation (cm)